CXK429 KRDU-KRDU

Flight info

Callsign CXK429
Flight time 0h 13m
Altitude VFR/025
Route VFR SW
Aircraft SR20/L-VGD/C

Departure

Time 2026-04-30 02:45
Airport Raleigh-Durham International Airport (KRDU)

Arrival

Time 2026-04-30 02:58
Airport Raleigh-Durham International Airport (KRDU)
Time Latitude Longitude Altitude Speed Heading
2026-04-30 02:45 35.91360 -78.75684 5331 ft 61 kts 337°
2026-04-30 02:45 35.91769 -78.75337 5276 ft 72 kts 27°
2026-04-30 02:45 35.92065 -78.74819 5039 ft 84 kts 74°
2026-04-30 02:45 35.91691 -78.74648 4641 ft 63 kts 226°
2026-04-30 02:46 35.91235 -78.74792 4422 ft 70 kts 208°
2026-04-30 02:46 35.90756 -78.74899 4221 ft 72 kts 199°
2026-04-30 02:46 35.90256 -78.74933 3986 ft 74 kts 199°
2026-04-30 02:46 35.89809 -78.75112 3372 ft 101 kts 264°
2026-04-30 02:47 35.89212 -78.75610 2719 ft 98 kts 248°
2026-04-30 02:47 35.89022 -78.76104 1972 ft 98 kts 232°
2026-04-30 02:47 35.89091 -78.76732 1452 ft 103 kts 206°
2026-04-30 02:47 35.88662 -78.76857 913 ft 99 kts 316°
2026-04-30 02:48 35.88482 -78.77206 640 ft 74 kts 218°
2026-04-30 02:48 35.88156 -78.77647 495 ft 74 kts 221°
2026-04-30 02:48 35.87804 -78.78077 419 ft 64 kts 224°
2026-04-30 02:48 35.87555 -78.78509 745 ft 55 kts 279°
2026-04-30 02:49 35.88017 -78.78851 830 ft 93 kts 327°
2026-04-30 02:49 35.88635 -78.79282 1047 ft 110 kts 328°
2026-04-30 02:49 35.89309 -78.79729 1332 ft 119 kts 332°
2026-04-30 02:49 35.90128 -78.80170 1469 ft 136 kts 334°
2026-04-30 02:50 35.91060 -78.80587 1560 ft 148 kts 339°
2026-04-30 02:50 35.91974 -78.81194 1727 ft 150 kts 326°
2026-04-30 02:50 35.92846 -78.81849 1946 ft 148 kts 325°
2026-04-30 02:50 35.93675 -78.82573 2159 ft 145 kts 320°
2026-04-30 02:51 35.94236 -78.83202 2368 ft 141 kts 314°
2026-04-30 02:51 35.94952 -78.84055 2537 ft 143 kts 313°
2026-04-30 02:51 35.95605 -78.84901 2837 ft 136 kts 315°
2026-04-30 02:51 35.96359 -78.85677 2974 ft 141 kts 320°
2026-04-30 02:52 35.97200 -78.86344 3086 ft 147 kts 337°
2026-04-30 02:52 35.98195 -78.86151 3309 ft 156 kts 29°
2026-04-30 02:52 35.98851 -78.85043 3386 ft 171 kts 66°
2026-04-30 02:52 35.98982 -78.83536 3407 ft 181 kts 96°
2026-04-30 02:53 35.98896 -78.82172 3410 ft 133 kts 358°
2026-04-30 02:53 35.98461 -78.82027 2548 ft 144 kts 46°
2026-04-30 02:53 35.99088 -78.81827 2924 ft 115 kts 105°
2026-04-30 02:53 35.98701 -78.81816 3242 ft 61 kts 280°
2026-04-30 02:54 35.98697 -78.82099 1723 ft 173 kts 258°
2026-04-30 02:54 35.98130 -78.82018 1900 ft 109 kts 275°
2026-04-30 02:54 35.98845 -78.82386 1743 ft 113 kts 263°
2026-04-30 02:54 35.98764 -78.82252 1574 ft 110 kts 290°
2026-04-30 02:55 35.98746 -78.82082 1544 ft 98 kts
2026-04-30 02:55 35.98818 -78.81400 1696 ft 110 kts 142°
2026-04-30 02:55 35.98047 -78.81044 1706 ft 129 kts 170°
2026-04-30 02:55 35.97056 -78.80732 1398 ft 161 kts 165°
2026-04-30 02:56 35.95968 -78.80319 1384 ft 161 kts 161°
2026-04-30 02:56 35.94922 -78.79794 1425 ft 160 kts 159°
2026-04-30 02:56 35.93862 -78.79301 1380 ft 163 kts 162°
2026-04-30 02:56 35.92742 -78.78917 1264 ft 168 kts 168°
2026-04-30 02:57 35.91552 -78.78710 1042 ft 176 kts 174°
2026-04-30 02:57 35.90360 -78.78333 886 ft 179 kts 156°
2026-04-30 02:57 35.89311 -78.77729 854 ft 147 kts 156°
2026-04-30 02:57 35.88528 -78.77509 983 ft 90 kts 180°
2026-04-30 02:58 35.87955 -78.77882 468 ft 102 kts 224°
2026-04-30 02:58 35.87537 -78.78404 430 ft 66 kts 221°
2026-04-30 02:58 35.87326 -78.78654 422 ft 9 kts 240°
2026-04-30 02:58 35.87395 -78.78628 422 ft 14 kts 350°
2026-04-30 02:59 35.87454 -78.78661 423 ft 13 kts 341°
2026-04-30 02:59 35.87524 -78.78619 423 ft 12 kts 43°
2026-04-30 02:59 35.87604 -78.78519 423 ft 20 kts 46°
2026-04-30 02:59 35.87722 -78.78410 424 ft 18 kts 327°
2026-04-30 03:00 35.87810 -78.78391 424 ft 20 kts 37°
2026-04-30 03:00 35.87961 -78.78435 421 ft 26 kts 344°
2026-04-30 03:00 35.88030 -78.78427 419 ft 0 kts 51°